Content
SEND FEEDBACK

Daily
Averages
Monthly
Summary
United States of America

PAHRUMP, NEVADA


Home > North America > United States > Nevada
Elevation: 858 meters     Latitude: 36 15N     Longitude: 115 59W

WEATHER
 
SELECT A DAY
Number of Records: 172,686;   Date Range: 1/2/95 - 7/26/14
 
SHARE

PRINT THIS DATA

[ ← Previous Day ]
WEATHER ALMANAC - 13 FEBRUARY, 2013
[ Next Day → ]
[ °F ]   °C
Weather ElementAverageHighLow
Temperature9.2 °C17.1 °C (3:55 pm)2.4 °C (4:58 am)
Dewpoint-6.1 °C-4.6 °C (9:58 pm)-8.9 °C (4:58 am)
Humidity35.1 %47 % (6:58 am)22 % (2:55 pm)
Barometer1024 hPa1028.4 hPa (7:56 am)1020.7 hPa (4:56 pm)
Wind Speed5.5 km/h11.1 km/h (7:56 am)
Weather ElementAverage
Visibility16.1 km
Wind DirectionE (88.2 °)

Weather ElementTotal
Precipitation---
Heating Degree Days8.6 (Base 18.3)
Averaged from 22 records on 13 February, 2013
WEATHER CONDITIONS BREAKOUT
WIND DIRECTION BREAKOUT
WEATHER BY HOUR - 13 FEBRUARY, 2013
[ °F ]   °C
Local TimeTemperatureDewpointHumidityBarometerVisibilityWind DirectionWind SpeedGust SpeedPrecipitationEventsConditions
1:58 AM2.5 °C-8.3 °C45 %1026.1 hPa16.1 kmENE (70°)7.4 km/hClear
2:58 AM3.4 °C-8.8 °C41 %1026.1 hPa16.1 kmNE (40°)9.3 km/hClear
3:58 AM2.6 °C-8.7 °C44 %1026.1 hPa16.1 kmCalmClear
4:58 AM2.4 °C-8.9 °C44 %1026.1 hPa16.1 kmCalmClear
5:58 AM2.7 °C-8.5 °C44 %1025.7 hPa16.1 kmENE (60°)5.6 km/hClear
6:58 AM3.5 °C-6.9 °C47 %1026.4 hPa16.1 kmVariable7.4 km/hClear
7:56 AM5 °C-7 °C42 %1028.4 hPa16.1 kmWNW (300°)11.1 km/hClear
8:56 AM6 °C-7 °C39 %1028.4 hPa16.1 kmSouth (180°)5.6 km/hClear
9:56 AM11 °C-6 °C30 %1026.4 hPa16.1 kmNNW (340°)3.7 km/hClear
10:56 AM12 °C-6 °C28 %1025.4 hPa16.1 kmVariable7.4 km/hClear
1:56 PM16 °C-5 °C23 %1022 hPa16.1 kmNNE (30°)7.4 km/hClear
2:55 PM16.8 °C-5 °C22 %1022.7 hPa16.1 kmCalmClear
3:55 PM17.1 °C-5.2 °C22 %1022.4 hPa16.1 kmCalmClear
4:55 PM16.8 °C-4.9 °C22 %1022 hPa16.1 kmEast (100°)7.4 km/hClear
4:56 PM17 °C-5 °C22 %1020.7 hPa16.1 kmEast (100°)5.6 km/hClear
5:58 PM14.2 °C-5.1 °C26 %1021.3 hPa16.1 kmSSW (200°)1.9 km/hClear
6:58 PM12.5 °C-4.8 °C30 %1021.7 hPa16.1 kmNorth (10°)7.4 km/hClear
7:58 PM9.2 °C-5 °C37 %1021.3 hPa16.1 kmNE (50°)11.1 km/hClear
8:58 PM8.6 °C-4.9 °C38 %1021.7 hPa16.1 kmENE (60°)11.1 km/hClear
9:58 PM7.8 °C-4.6 °C42 %1022 hPa16.1 kmNorth (350°)1.9 km/hClear
10:58 PM7.5 °C-4.7 °C42 %1022.4 hPa16.1 kmNorth (10°)5.6 km/hClear
11:58 PM7.4 °C-4.8 °C42 %1021.7 hPa16.1 kmNE (40°)3.7 km/hClear
Hourly data recorded from KLSV, located 0 kilometers away from Pahrump, Nevada







STORIES FROM OUR PARTNERS